Hourly Weather Hotimlya

Today, 17 April, Saturday

Time Temperature Precipitation Wind Pressure Humidity
00:00 +9°C° 0 mm 3 mps 747 mmHg 87%
01:00 +8°C° 0 mm 2 mps 747 mmHg 89%
02:00 +7°C° 0 mm 2 mps 747 mmHg 90%
03:00 +7°C° 0 mm 2 mps 747 mmHg 91%
04:00 +6°C° 0 mm 2 mps 747 mmHg 92%
05:00 +7°C° 0 mm 2 mps 747 mmHg 90%
06:00 +8°C° 0 mm 1 mps 747 mmHg 88%
07:00 +9°C° 0 mm 1 mps 747 mmHg 86%
08:00 +10°C° 0 mm 1 mps 747 mmHg 80%
09:00 +12°C° 0 mm 2 mps 748 mmHg 74%
10:00 +13°C° 0 mm 2 mps 748 mmHg 68%
11:00 +14°C° 0 mm 2 mps 747 mmHg 65%
12:00 +14°C° 0 mm 3 mps 747 mmHg 61%
13:00 +16°C° 0 mm 3 mps 747 mmHg 57%
14:00 +16°C° 0 mm 3 mps 747 mmHg 55%
15:00 +17°C° 0 mm 3 mps 747 mmHg 53%
16:00 +17°C° 0 mm 3 mps 747 mmHg 51%
17:00 +16°C° 0 mm 3 mps 747 mmHg 52%
18:00 +13°C° 0 mm 3 mps 746 mmHg 52%
19:00 +12°C° 0 mm 3 mps 746 mmHg 52%
20:00 +11°C° 0 mm 4 mps 746 mmHg 54%
21:00 +10°C° 0 mm 4 mps 746 mmHg 56%
22:00 +8°C° 0 mm 4 mps 746 mmHg 58%
23:00 +7°C° 0 mm 4 mps 746 mmHg 60%

Tomorrow, 18 April, Sunday

Time Temperature Precipitation Wind Pressure Humidity
00:00 +7°C° 0 mm 3 mps 746 mmHg 62%
01:00 +5°C° 0 mm 3 mps 746 mmHg 63%
02:00 +4°C° 0 mm 3 mps 746 mmHg 65%
03:00 +4°C° 0 mm 3 mps 746 mmHg 67%
04:00 +3°C° 0 mm 3 mps 746 mmHg 68%
05:00 +3°C° 0 mm 3 mps 746 mmHg 67%
06:00 +4°C° 0 mm 3 mps 746 mmHg 66%
07:00 +4°C° 0 mm 4 mps 746 mmHg 65%
08:00 +6°C° 0 mm 4 mps 746 mmHg 59%
09:00 +7°C° 0 mm 5 mps 746 mmHg 53%
10:00 +9°C° 0 mm 5 mps 746 mmHg 47%
11:00 +9°C° 0 mm 6 mps 746 mmHg 44%
12:00 +10°C° 0 mm 6 mps 746 mmHg 42%
13:00 +11°C° 0 mm 6 mps 746 mmHg 40%
14:00 +11°C° 0 mm 6 mps 746 mmHg 40%
15:00 +11°C° 0 mm 6 mps 746 mmHg 40%
16:00 +11°C° 0 mm 6 mps 746 mmHg 40%
17:00 +10°C° 0 mm 6 mps 746 mmHg 47%
18:00 +9°C° 0 mm 7 mps 746 mmHg 54%
19:00 +6°C° 0 mm 7 mps 747 mmHg 61%
20:00 +5°C° 0 mm 7 mps 747 mmHg 65%
21:00 +4°C° 0 mm 6 mps 747 mmHg 69%
22:00 +3°C° 0 mm 6 mps 748 mmHg 73%
23:00 +3°C° 0 mm 6 mps 748 mmHg 72%

Day after tomorrow, 19 April, Monday

Time Temperature Precipitation Wind Pressure Humidity
00:00 +2°C° 0 mm 5 mps 748 mmHg 71%
01:00 +1°C° 0 mm 5 mps 749 mmHg 69%
02:00 +1°C° 0 mm 5 mps 749 mmHg 65%
03:00 +1°C° 0 mm 5 mps 750 mmHg 61%
04:00 +1°C° 0 mm 5 mps 750 mmHg 57%
05:00 +1°C° 0 mm 5 mps 750 mmHg 59%
06:00 0°C° 0 mm 5 mps 751 mmHg 60%
07:00 -1°C° 0 mm 6 mps 751 mmHg 62%
08:00 -1°C° 0 mm 6 mps 752 mmHg 59%
09:00 +1°C° 0 mm 5 mps 752 mmHg 56%
10:00 +1°C° 0 mm 5 mps 752 mmHg 53%
11:00 +2°C° 0 mm 5 mps 752 mmHg 48%
12:00 +3°C° 0 mm 5 mps 752 mmHg 43%
13:00 +5°C° 0 mm 5 mps 753 mmHg 38%
14:00 +6°C° 0 mm 5 mps 753 mmHg 37%
15:00 +6°C° 0 mm 5 mps 753 mmHg 36%
16:00 +6°C° 0 mm 5 mps 753 mmHg 34%
17:00 +5°C° 0 mm 5 mps 753 mmHg 35%
18:00 +5°C° 0 mm 5 mps 753 mmHg 36%
19:00 +3°C° 0 mm 5 mps 753 mmHg 37%
20:00 +2°C° 0 mm 5 mps 754 mmHg 38%
21:00 +1°C° 0 mm 4 mps 754 mmHg 40%
22:00 0°C° 0 mm 4 mps 755 mmHg 42%
23:00 -1°C° 0 mm 4 mps 755 mmHg 45%

20 April, Tuesday

Time Temperature Precipitation Wind Pressure Humidity
00:00 -2°C° 0 mm 4 mps 755 mmHg 48%
01:00 -2°C° 0 mm 3 mps 756 mmHg 51%
02:00 -2°C° 0 mm 3 mps 756 mmHg 51%
03:00 -2°C° 0 mm 3 mps 756 mmHg 52%
04:00 -2°C° 0 mm 3 mps 757 mmHg 52%
05:00 -2°C° 0 mm 3 mps 757 mmHg 48%
06:00 -2°C° 0 mm 4 mps 757 mmHg 44%
07:00 -2°C° 0 mm 4 mps 758 mmHg 40%
08:00 0°C° 0 mm 4 mps 758 mmHg 36%
09:00 +1°C° 0 mm 4 mps 758 mmHg 33%
10:00 +3°C° 0 mm 4 mps 758 mmHg 30%
11:00 +4°C° 0 mm 4 mps 758 mmHg 29%
12:00 +5°C° 0 mm 3 mps 757 mmHg 27%
13:00 +7°C° 0 mm 3 mps 757 mmHg 26%
14:00 +8°C° 0 mm 3 mps 757 mmHg 26%
15:00 +8°C° 0 mm 3 mps 757 mmHg 25%
16:00 +9°C° 0 mm 2 mps 756 mmHg 25%
17:00 +8°C° 0 mm 2 mps 756 mmHg 29%
18:00 +7°C° 0 mm 2 mps 756 mmHg 33%
19:00 +5°C° 0 mm 3 mps 756 mmHg 37%
20:00 +5°C° 0 mm 2 mps 756 mmHg 40%
21:00 +4°C° 0 mm 2 mps 756 mmHg 42%
22:00 +4°C° 0 mm 2 mps 756 mmHg 44%
23:00 +3°C° 0 mm 2 mps 756 mmHg 46%

21 April, Wednesday

Time Temperature Precipitation Wind Pressure Humidity
00:00 +3°C° 0 mm 2 mps 756 mmHg 48%
01:00 +2°C° 0 mm 2 mps 756 mmHg 50%
02:00 +2°C° 0 mm 2 mps 756 mmHg 52%
03:00 +1°C° 0 mm 2 mps 757 mmHg 53%
04:00 +1°C° 0 mm 2 mps 757 mmHg 55%
05:00 +1°C° 0 mm 2 mps 757 mmHg 53%
06:00 +1°C° 0 mm 3 mps 757 mmHg 51%
07:00 +2°C° 0 mm 3 mps 757 mmHg 48%
08:00 +3°C° 0 mm 4 mps 757 mmHg 43%
09:00 +5°C° 0 mm 4 mps 757 mmHg 38%
10:00 +6°C° 0 mm 5 mps 757 mmHg 33%
11:00 +7°C° 0 mm 5 mps 757 mmHg 31%
12:00 +9°C° 0 mm 5 mps 756 mmHg 29%
13:00 +10°C° 0 mm 5 mps 756 mmHg 28%
14:00 +10°C° 0 mm 5 mps 756 mmHg 28%
15:00 +12°C° 0 mm 5 mps 756 mmHg 27%
16:00 +12°C° 0 mm 5 mps 755 mmHg 27%
17:00 +11°C° 0 mm 4 mps 755 mmHg 32%
18:00 +10°C° 0 mm 3 mps 755 mmHg 37%
19:00 +9°C° 0 mm 3 mps 755 mmHg 42%
20:00 +8°C° 0 mm 3 mps 756 mmHg 44%
21:00 +7°C° 0 mm 3 mps 756 mmHg 47%
22:00 +5°C° 0 mm 3 mps 756 mmHg 49%
23:00 +5°C° 0 mm 3 mps 756 mmHg 51%

22 April, Thursday

Time Temperature Precipitation Wind Pressure Humidity
00:00 +4°C° 0 mm 3 mps 756 mmHg 52%
01:00 +4°C° 0 mm 3 mps 756 mmHg 54%
02:00 +3°C° 0 mm 3 mps 756 mmHg 55%
03:00 +3°C° 0 mm 3 mps 756 mmHg 56%
04:00 +2°C° 0 mm 3 mps 756 mmHg 57%
05:00 +3°C° 0 mm 3 mps 756 mmHg 56%
06:00 +4°C° 0 mm 3 mps 756 mmHg 55%
07:00 +4°C° 0 mm 4 mps 756 mmHg 54%
08:00 +6°C° 0 mm 4 mps 756 mmHg 47%
09:00 +8°C° 0 mm 5 mps 757 mmHg 41%
10:00 +10°C° 0 mm 6 mps 757 mmHg 34%
11:00 +11°C° 0 mm 6 mps 757 mmHg 31%
12:00 +13°C° 0 mm 6 mps 756 mmHg 29%
13:00 +14°C° 0 mm 6 mps 756 mmHg 26%
14:00 +14°C° 0 mm 5 mps 756 mmHg 26%
15:00 +14°C° 0 mm 5 mps 756 mmHg 27%
16:00 +14°C° 0 mm 5 mps 756 mmHg 27%
17:00 +13°C° 0 mm 4 mps 756 mmHg 32%
18:00 +12°C° 0 mm 3 mps 756 mmHg 37%
19:00 +12°C° 0 mm 2 mps 756 mmHg 42%
20:00 +10°C° 0 mm 2 mps 756 mmHg 43%
21:00 +9°C° 0 mm 2 mps 756 mmHg 45%
22:00 +8°C° 0 mm 2 mps 756 mmHg 46%
23:00 +8°C° 0 mm 2 mps 756 mmHg 47%
Show more

We Need Your Consent

Meteoprog and our Service Providers may store and access personal data such as cookies, device identifiers or other similar technologies on your device and process such data to personalise content and ads, as well as provide social media features and to analyse the traffic.

  • Store and/or access information on your device

    Cookies, device identifiers or other information can be stored or accessed on your device for the purposes indicated above.

  • Personalised ads and content, ad and content measurement, audience insights, and products development

    Ads and content can be personalised based on a profile. More data can be added to better personalise ads and content. Ad and content performance can be measured. Insights about the audience who saw the ads and content can be derived. Such data can be used to develop or improve user’s experience, systems and software.

By clicking ‘I Agree’ you will allow the use of indicated cookies, device identifiers, web beacons or other similar technologies. Your settings can be changed in the browser on your device.

For certain purposes, legitimate interests may be relied on, rather than consent. You can read more about this in our Privacy and Cookie Policy.